Hourly Weather Allahabad

Today, 25 November, Wednesday

Time Temperature Precipitation Wind Pressure Humidity
00:00 +17°C° 0 mm 0 mps 753 mmHg 30%
01:00 +16°C° 0 mm 0 mps 753 mmHg 30%
02:00 +16°C° 0 mm 0 mps 753 mmHg 31%
03:00 +16°C° 0 mm 0 mps 753 mmHg 32%
04:00 +15°C° 0 mm 0 mps 753 mmHg 33%
05:00 +16°C° 0 mm 1 mps 753 mmHg 33%
06:00 +18°C° 0 mm 1 mps 753 mmHg 32%
07:00 +20°C° 0 mm 1 mps 754 mmHg 31%
08:00 +21°C° 0 mm 1 mps 754 mmHg 29%
09:00 +23°C° 0 mm 1 mps 754 mmHg 27%
10:00 +25°C° 0 mm 2 mps 754 mmHg 24%
11:00 +27°C° 0 mm 2 mps 754 mmHg 21%
12:00 +28°C° 0 mm 2 mps 753 mmHg 20%
13:00 +28°C° 0 mm 2 mps 752 mmHg 19%
14:00 +29°C° 0 mm 1 mps 751 mmHg 18%
15:00 +27°C° 0 mm 1 mps 751 mmHg 20%
16:00 +26°C° 0 mm 1 mps 751 mmHg 22%
17:00 +24°C° 0 mm 1 mps 752 mmHg 24%
18:00 +23°C° 0 mm 1 mps 752 mmHg 25%
19:00 +23°C° 0 mm 1 mps 753 mmHg 25%
20:00 +22°C° 0 mm 1 mps 753 mmHg 26%
21:00 +21°C° 0 mm 1 mps 753 mmHg 27%
22:00 +20°C° 0 mm 1 mps 753 mmHg 29%
23:00 +20°C° 0 mm 1 mps 754 mmHg 30%

Tomorrow, 26 November, Thursday

Time Temperature Precipitation Wind Pressure Humidity
00:00 +19°C° 0 mm 1 mps 753 mmHg 31%
01:00 +19°C° 0 mm 1 mps 753 mmHg 32%
02:00 +19°C° 0 mm 1 mps 753 mmHg 33%
03:00 +18°C° 0 mm 1 mps 753 mmHg 34%
04:00 +18°C° 0 mm 1 mps 753 mmHg 35%
05:00 +18°C° 0 mm 1 mps 753 mmHg 36%
06:00 +19°C° 0 mm 1 mps 754 mmHg 35%
07:00 +20°C° 0 mm 1 mps 754 mmHg 34%
08:00 +22°C° 0 mm 1 mps 755 mmHg 32%
09:00 +24°C° 0 mm 1 mps 755 mmHg 29%
10:00 +26°C° 0 mm 1 mps 754 mmHg 26%
11:00 +28°C° 0 mm 1 mps 754 mmHg 23%
12:00 +28°C° 0 mm 1 mps 754 mmHg 22%
13:00 +29°C° 0 mm 2 mps 753 mmHg 21%
14:00 +29°C° 0 mm 2 mps 752 mmHg 20%
15:00 +28°C° 0 mm 2 mps 752 mmHg 22%
16:00 +26°C° 0 mm 1 mps 753 mmHg 25%
17:00 +25°C° 0 mm 1 mps 753 mmHg 27%
18:00 +24°C° 0 mm 1 mps 753 mmHg 28%
19:00 +23°C° 0 mm 1 mps 754 mmHg 28%
20:00 +21°C° 0 mm 0 mps 754 mmHg 29%
21:00 +22°C° 0 mm 1 mps 754 mmHg 30%
22:00 +22°C° 0 mm 1 mps 754 mmHg 30%
23:00 +21°C° 0 mm 1 mps 754 mmHg 31%

Day after tomorrow, 27 November, Friday

Time Temperature Precipitation Wind Pressure Humidity
00:00 +21°C° 0 mm 1 mps 754 mmHg 32%
01:00 +20°C° 0 mm 1 mps 754 mmHg 33%
02:00 +18°C° 0 mm 2 mps 754 mmHg 34%
03:00 +19°C° 0 mm 1 mps 754 mmHg 36%
04:00 +18°C° 0 mm 1 mps 755 mmHg 37%
05:00 +18°C° 0 mm 1 mps 755 mmHg 38%
06:00 +19°C° 0 mm 1 mps 755 mmHg 37%
07:00 +20°C° 0 mm 1 mps 756 mmHg 36%
08:00 +21°C° 0 mm 2 mps 756 mmHg 36%
09:00 +24°C° 0 mm 2 mps 756 mmHg 32%
10:00 +26°C° 0 mm 2 mps 756 mmHg 29%
11:00 +28°C° 0 mm 2 mps 756 mmHg 26%
12:00 +29°C° 0 mm 2 mps 755 mmHg 25%
13:00 +29°C° 0 mm 3 mps 755 mmHg 24%
14:00 +30°C° 0 mm 3 mps 754 mmHg 23%
15:00 +28°C° 0 mm 2 mps 754 mmHg 26%
16:00 +27°C° 0 mm 2 mps 754 mmHg 29%
17:00 +25°C° 0 mm 2 mps 754 mmHg 33%
18:00 +24°C° 0 mm 2 mps 754 mmHg 35%
19:00 +23°C° 0 mm 2 mps 755 mmHg 37%
20:00 +21°C° 0 mm 2 mps 755 mmHg 39%
21:00 +21°C° 0 mm 2 mps 755 mmHg 40%
22:00 +20°C° 0 mm 2 mps 755 mmHg 41%
23:00 +20°C° 0 mm 2 mps 755 mmHg 42%

28 November, Saturday

Time Temperature Precipitation Wind Pressure Humidity
00:00 +19°C° 0 mm 2 mps 755 mmHg 43%
01:00 +19°C° 0 mm 2 mps 755 mmHg 44%
02:00 +18°C° 0 mm 2 mps 755 mmHg 45%
03:00 +18°C° 0 mm 2 mps 755 mmHg 46%
04:00 +17°C° 0 mm 2 mps 755 mmHg 48%
05:00 +16°C° 0 mm 2 mps 755 mmHg 49%
06:00 +18°C° 0 mm 2 mps 755 mmHg 46%
07:00 +19°C° 0 mm 2 mps 756 mmHg 43%
08:00 +20°C° 0 mm 2 mps 757 mmHg 40%
09:00 +23°C° 0 mm 2 mps 756 mmHg 35%
10:00 +25°C° 0 mm 2 mps 756 mmHg 31%
11:00 +27°C° 0 mm 2 mps 756 mmHg 26%
12:00 +28°C° 0 mm 2 mps 755 mmHg 24%
13:00 +29°C° 0 mm 2 mps 754 mmHg 23%
14:00 +29°C° 0 mm 2 mps 753 mmHg 21%
15:00 +28°C° 0 mm 2 mps 753 mmHg 23%
16:00 +26°C° 0 mm 2 mps 753 mmHg 26%
17:00 +24°C° 0 mm 2 mps 753 mmHg 29%
18:00 +23°C° 0 mm 1 mps 754 mmHg 30%
19:00 +22°C° 0 mm 1 mps 754 mmHg 32%
20:00 +22°C° 0 mm 1 mps 755 mmHg 34%
21:00 +21°C° 0 mm 1 mps 755 mmHg 35%
22:00 +20°C° 0 mm 1 mps 755 mmHg 36%
23:00 +20°C° 0 mm 1 mps 755 mmHg 38%

29 November, Sunday

Time Temperature Precipitation Wind Pressure Humidity
00:00 +19°C° 0 mm 1 mps 754 mmHg 39%
01:00 +19°C° 0 mm 1 mps 754 mmHg 40%
02:00 +18°C° 0 mm 1 mps 754 mmHg 41%
03:00 +18°C° 0 mm 1 mps 754 mmHg 42%
04:00 +18°C° 0 mm 1 mps 754 mmHg 43%
05:00 +16°C° 0 mm 1 mps 754 mmHg 44%
06:00 +18°C° 0 mm 1 mps 755 mmHg 42%
07:00 +20°C° 0 mm 1 mps 755 mmHg 40%
08:00 +21°C° 0 mm 1 mps 756 mmHg 38%
09:00 +23°C° 0 mm 2 mps 756 mmHg 34%
10:00 +25°C° 0 mm 2 mps 755 mmHg 30%
11:00 +27°C° 0 mm 2 mps 755 mmHg 26%
12:00 +28°C° 0 mm 2 mps 754 mmHg 24%
13:00 +28°C° 0 mm 2 mps 753 mmHg 23%
14:00 +29°C° 0 mm 2 mps 752 mmHg 22%
15:00 +27°C° 0 mm 2 mps 752 mmHg 24%
16:00 +25°C° 0 mm 2 mps 752 mmHg 27%
17:00 +24°C° 0 mm 2 mps 752 mmHg 30%
18:00 +23°C° 0 mm 2 mps 753 mmHg 31%
19:00 +21°C° 0 mm 2 mps 753 mmHg 32%
20:00 +21°C° 0 mm 1 mps 753 mmHg 33%
21:00 +21°C° 0 mm 1 mps 753 mmHg 34%
22:00 +20°C° 0 mm 1 mps 753 mmHg 35%
23:00 +19°C° 0 mm 1 mps 753 mmHg 36%

30 November, Monday

Time Temperature Precipitation Wind Pressure Humidity
00:00 +19°C° 0 mm 1 mps 753 mmHg 37%
01:00 +18°C° 0 mm 1 mps 752 mmHg 38%
02:00 +18°C° 0 mm 1 mps 752 mmHg 40%
03:00 +18°C° 0 mm 1 mps 752 mmHg 40%
04:00 +16°C° 0 mm 1 mps 752 mmHg 41%
05:00 +16°C° 0 mm 1 mps 753 mmHg 42%
06:00 +18°C° 0 mm 1 mps 753 mmHg 40%
07:00 +19°C° 0 mm 1 mps 754 mmHg 38%
08:00 +21°C° 0 mm 1 mps 754 mmHg 37%
09:00 +23°C° 0 mm 1 mps 754 mmHg 33%
10:00 +25°C° 0 mm 1 mps 754 mmHg 29%
11:00 +27°C° 0 mm 1 mps 754 mmHg 25%
12:00 +27°C° 0 mm 1 mps 753 mmHg 24%
13:00 +28°C° 0 mm 1 mps 752 mmHg 22%
14:00 +29°C° 0 mm 1 mps 751 mmHg 20%
15:00 +27°C° 0 mm 1 mps 752 mmHg 23%
16:00 +25°C° 0 mm 1 mps 752 mmHg 25%
17:00 +24°C° 0 mm 1 mps 752 mmHg 28%
18:00 +23°C° 0 mm 1 mps 752 mmHg 29%
19:00 +22°C° 0 mm 1 mps 752 mmHg 30%
20:00 +21°C° 0 mm 1 mps 753 mmHg 31%
21:00 +19°C° 0 mm 0 mps 753 mmHg 32%
22:00 +18°C° 0 mm 0 mps 753 mmHg 33%
23:00 +18°C° 0 mm 0 mps 753 mmHg 34%
Show more